Weather in Karlsruhe

Germany     49°00′34″N   8°23′14″E
temp.,
°C
wind,
m/s
gust,
m/s
humid.,
%
clouds,
%
prec.,
mm/h
press.,
hPa
HPBL,
m
20 april, tue
tue2023:00+5se219168 0.0 101916
02:00+4se11925 0.0 101912
05:00+3se11925 0.0 101910
08:00+6ese11835 0.0 101983
11:00+13ene225613 0.0 10171113
14:00+15ne124981 0.1 10161534
17:00+16nne224354 0.0 10141903
20:00+12e236663 0.1 101454
21 april, wed
wed2123:00+10se117148 0.0 101621
02:00+7se11795 0.0 101613
05:00+6s11835 0.0 101611
08:00+8sse01734 0.0 101668
11:00+15nw11545 0.0 1016712
14:00+18nw21425 0.1 10141830
17:00+18nnw223934 0.3 10132173
20:00+14n365979 0.5 1014321
22 april, thu
thu2223:00+10e117486 0.3 101725
02:00+10nne3773100 0.3 1018463
05:00+7ne367599 0.0 1019378
08:00+7nne3568100 0.0 1021555
11:00+8ne344695 0.0 1023869
14:00+12n332999 0.0 10221421
17:00+13n44305 0.0 10221719
20:00+9nnw24525 0.0 1023118
23 april, fri
fri2323:00+6ne13625 0.0 102598
02:00+4e13725 0.0 102681
05:00+2ese11800 0.0 102735
08:00+5ene13694 0.0 1028190
11:00+10ne23485 0.0 10281108
14:00+13nne34363 0.0 10271555
17:00+14ne34353 0.0 10261712
20:00+10e25580 0.0 1027124
24 april, sat
sat2423:00+6ese22670 0.0 102730
02:00+5ese22740 0.0 102743
05:00+3e22820 0.0 102739
08:00+6ene246916 0.0 1027173
11:00+11ne3450100 0.0 1026947
14:00+14ne3340100 0.0 10241329
17:00+15nne3335100 0.0 10231539
20:00+10ne2656100 0.0 1024221